Weather History for Mustang Island A85A, TX

Change the Weather History Date:

Tuesday, February 19, 2013

  Actual Average Record
Temperature  
Mean Temperature 66 °F -  
Max Temperature 69 °F - - ()
Min Temperature 62 °F - - ()
Growing Degree Days 16 (Base 50)    
Moisture  
Dew Point 54 °F    
Average Humidity 64    
Maximum Humidity 88    
Minimum Humidity 53    
Precipitation  
Precipitation 0.00 in - - ()
Sea Level Pressure  
Sea Level Pressure 30.11 in    
Wind  
Wind Speed 18 mph ()    
Max Wind Speed 32 mph    
Max Gust Speed 38 mph    
Visibility 7.6 miles    
Events      
T = Trace of Precipitation, MM = Missing Value Source: Averaged Metar Reports

Daily Weather History Graph

Daily Weather History Graph

Search for Another Location

Airport:

Trip Planner

Search our weather history database for the weather conditions in past years. The results will help you decide how hot, cold, wet, or windy it might be!

Date:

Astronomy

Feb. 19, 2013 Rise Set
Actual Time 6:58 AM CST 6:19 PM CST
Civil Twilight 6:34 AM CST 6:42 PM CST
Nautical Twilight 6:07 AM CST 7:10 PM CST
Astronomical Twilight 5:40 AM CST 7:37 PM CST
Moon 1:06 PM CST (2/19) 2:15 AM CST (2/19)
Length of Visible Light 12h 08m
Length of Day
11h 20m
Waxing Gibbous, 67% of the Moon is Illuminated
Feb 19
Waxing Gibbous
Feb 25
Full
Mar 4
Last Quarter
Mar 11
New
Mar 19
First Quarter

Hourly Weather History & Observations

Time (CST) Temp. Dew Point Humidity Pressure Visibility Wind Dir Wind Speed Gust Speed Precip Events Conditions
12:15 AM 69.8 °F 66.2 °F 88% 30.01 in 5.0 mi South 18.4 mph - N/A   Mist
12:35 AM 69.8 °F 66.2 °F 88% 30.01 in 4.0 mi South 15.0 mph - N/A   Mist
12:55 AM 69.8 °F 66.2 °F 88% 30.01 in 4.0 mi South 12.7 mph - N/A   Mist
1:15 AM 69.8 °F 66.2 °F 88% 30.01 in 4.0 mi South 12.7 mph - N/A   Mist
1:35 AM 69.8 °F 66.2 °F 88% 30.02 in 4.0 mi SSW 11.5 mph - N/A   Mist
1:55 AM 69.8 °F 66.2 °F 88% 30.02 in 4.0 mi SSW 10.4 mph - N/A   Mist
2:15 AM 69.8 °F 66.2 °F 88% 30.02 in 5.0 mi SSW 11.5 mph - N/A   Mist
2:35 AM 69.8 °F 66.2 °F 88% 30.02 in 5.0 mi SSW 8.1 mph - N/A   Mist
2:55 AM 66.2 °F 62.6 °F 88% 30.04 in 5.0 mi North 21.9 mph 32.2 mph N/A   Mist
3:35 AM 62.6 °F 51.8 °F 68% 30.06 in 10.0 mi NNE 28.8 mph - N/A   Overcast
3:55 AM 64.4 °F 51.8 °F 64% 30.07 in 10.0 mi NE 28.8 mph - N/A   Overcast
4:15 AM 64.4 °F 51.8 °F 64% 30.07 in - NNE 27.6 mph - N/A   Overcast
4:35 AM 64.4 °F 51.8 °F 64% 30.07 in 10.0 mi NNE 27.6 mph - N/A   Overcast
4:55 AM 64.4 °F 51.8 °F 64% 30.08 in 10.0 mi NNE 29.9 mph - N/A   Overcast
5:15 AM 64.4 °F 51.8 °F 64% 30.09 in 10.0 mi NNE 26.5 mph - N/A   Overcast
5:35 AM 64.4 °F 50.0 °F 59% 30.10 in 10.0 mi NE 26.5 mph 33.4 mph N/A   Overcast
5:55 AM 64.4 °F 50.0 °F 59% 30.10 in 10.0 mi NNE 27.6 mph 33.4 mph N/A   Overcast
6:15 AM 64.4 °F 51.8 °F 64% 30.10 in 10.0 mi NNE 27.6 mph 34.5 mph N/A   Overcast
6:55 AM 62.6 °F 50.0 °F 63% 30.11 in 10.0 mi NNE 32.2 mph 38.0 mph N/A   Overcast
7:15 AM 62.6 °F 50.0 °F 63% 30.13 in 10.0 mi NE 25.3 mph 34.5 mph N/A   Overcast
7:35 AM 64.4 °F 50.0 °F 59% 30.13 in 10.0 mi NE 27.6 mph 33.4 mph N/A   Overcast
7:55 AM 64.4 °F 51.8 °F 64% 30.15 in 9.0 mi NE 24.2 mph 33.4 mph N/A   Overcast
8:15 AM 66.2 °F 51.8 °F 60% 30.16 in 9.0 mi NE 16.1 mph 34.5 mph N/A   Overcast
8:55 AM 66.2 °F 50.0 °F 56% 30.17 in 10.0 mi NE 20.7 mph 34.5 mph N/A   Overcast
9:15 AM 66.2 °F 50.0 °F 56% 30.17 in 10.0 mi NE 31.1 mph - N/A   Overcast
9:35 AM 66.2 °F 51.8 °F 60% 30.18 in 9.0 mi NE 26.5 mph - N/A   Overcast
9:55 AM 66.2 °F 51.8 °F 60% 30.19 in 9.0 mi NE 19.6 mph 29.9 mph N/A   Overcast
10:15 AM 66.2 °F 51.8 °F 60% 30.19 in 8.0 mi NE 17.3 mph 31.1 mph N/A   Overcast
10:35 AM 66.2 °F 51.8 °F 60% 30.19 in 9.0 mi NE 23.0 mph - N/A   Overcast
10:55 AM 68.0 °F 51.8 °F 56% 30.20 in 7.0 mi NE 15.0 mph 27.6 mph N/A   Overcast
11:15 AM 68.0 °F 51.8 °F 56% 30.20 in 6.0 mi ENE 16.1 mph 25.3 mph N/A   Haze
11:35 AM 68.0 °F 51.8 °F 56% 30.19 in 6.0 mi NE 17.3 mph 25.3 mph N/A   Haze
12:15 PM 68.0 °F 51.8 °F 56% 30.18 in 5.0 mi ENE 16.1 mph 24.2 mph N/A   Haze
12:35 PM 68.0 °F 51.8 °F 56% 30.18 in 5.0 mi NE 16.1 mph 24.2 mph N/A   Haze
12:55 PM 68.0 °F 51.8 °F 56% 30.17 in 5.0 mi ENE 17.3 mph 25.3 mph N/A   Haze
1:15 PM 68.0 °F 51.8 °F 56% 30.16 in 5.0 mi ENE 15.0 mph 24.2 mph N/A   Haze
1:35 PM 68.0 °F 51.8 °F 56% 30.15 in 5.0 mi ENE 13.8 mph 24.2 mph N/A   Haze
1:55 PM 68.0 °F 51.8 °F 56% 30.15 in 6.0 mi ENE 15.0 mph 21.9 mph N/A   Haze
2:15 PM 68.0 °F 51.8 °F 56% 30.15 in 6.0 mi NE 13.8 mph 24.2 mph N/A   Haze
2:35 PM 69.8 °F 51.8 °F 53% 30.14 in 6.0 mi NE 18.4 mph 25.3 mph N/A   Haze
2:55 PM 69.8 °F 53.6 °F 56% 30.13 in 5.0 mi NE 15.0 mph 24.2 mph N/A   Haze
3:15 PM 68.0 °F 51.8 °F 56% 30.13 in 6.0 mi ENE 16.1 mph 25.3 mph N/A   Haze
3:35 PM 66.2 °F 51.8 °F 60% 30.12 in 7.0 mi ENE 13.8 mph 23.0 mph N/A   Mostly Cloudy
3:55 PM 68.0 °F 51.8 °F 56% 30.12 in 6.0 mi ENE 15.0 mph 21.9 mph N/A   Haze
4:15 PM 68.0 °F 51.8 °F 56% 30.11 in 8.0 mi ENE 16.1 mph 24.2 mph N/A   Overcast
4:35 PM 68.0 °F 51.8 °F 56% 30.11 in 7.0 mi ENE 17.3 mph 24.2 mph N/A   Mostly Cloudy
4:55 PM 68.0 °F 51.8 °F 56% 30.11 in 6.0 mi ENE 17.3 mph 24.2 mph N/A   Haze
5:15 PM 68.0 °F 51.8 °F 56% 30.10 in 7.0 mi ENE 19.6 mph - N/A   Clear
6:55 PM 68.0 °F 53.6 °F 60% 30.11 in 6.0 mi ENE 16.1 mph 25.3 mph N/A   Haze
7:15 PM 68.0 °F 53.6 °F 60% 30.09 in 7.0 mi ENE 18.4 mph 26.5 mph N/A   Mostly Cloudy
7:35 PM 68.0 °F 53.6 °F 60% 30.11 in 7.0 mi ENE 18.4 mph - N/A   Overcast
8:15 PM 68.0 °F 55.4 °F 64% 30.11 in 6.0 mi ENE 19.6 mph 27.6 mph N/A   Haze
8:35 PM 66.2 °F 55.4 °F 68% 30.11 in 8.0 mi East 16.1 mph 26.5 mph N/A   Overcast
8:55 PM 66.2 °F 55.4 °F 68% 30.11 in 9.0 mi ENE 17.3 mph 24.2 mph N/A   Mostly Cloudy
9:15 PM 66.2 °F 53.6 °F 64% 30.10 in 10.0 mi East 18.4 mph 27.6 mph N/A   Mostly Cloudy
9:35 PM 66.2 °F 55.4 °F 68% 30.09 in 10.0 mi East 17.3 mph 26.5 mph N/A   Mostly Cloudy
9:55 PM 66.2 °F 55.4 °F 68% 30.11 in 10.0 mi East 15.0 mph 26.5 mph N/A   Mostly Cloudy
10:15 PM 66.2 °F 53.6 °F 64% 30.10 in 10.0 mi East 19.6 mph - N/A   Mostly Cloudy
10:35 PM 66.2 °F 53.6 °F 64% 30.09 in 10.0 mi East 18.4 mph 25.3 mph N/A   Mostly Cloudy
10:55 PM 66.2 °F 53.6 °F 64% 30.08 in 10.0 mi East 18.4 mph 26.5 mph N/A   Overcast
11:15 PM 66.2 °F 55.4 °F 68% 30.07 in 10.0 mi East 17.3 mph 26.5 mph N/A   Overcast
11:35 PM 66.2 °F 53.6 °F 64% 30.07 in 10.0 mi East 17.3 mph 26.5 mph N/A   Overcast
11:55 PM 66.2 °F 55.4 °F 68% 30.05 in 10.0 mi East 17.3 mph 29.9 mph N/A   Overcast